Location: Unspecified
(43.4680°N, 87.1740°E)
Time: 13:02:08
(UTC+00:00)

Cosmos 2327 Rocket - Pass Details

Date: 17 January 2020
Orbit: 943 x 1009 km, 83.0° (Epoch: 20 February)

Event Time Altitude Azimuth Distance (km) Brightness Sun altitude
Rises 23:35:11 0° 350° (N) 3,716 7.4 -22.3°
Reaches altitude 10° 23:37:45 10° 348° (NNW) 2,754 6.7 -21.8°
Maximum altitude 23:44:01 72° 266° (W) 1,024 4.4 -20.7°
Drops below altitude 10° 23:50:09 10° 183° (S) 2,690 6.9 -19.6°
Sets 23:52:37 0° 181° (S) 3,623 7.6 -19.2°
